Tracking 32964 objects as of 20-Jan-2026
HD Live streaming from Space Station
objects crossing your sky now

STARLINK-6258

Track STARLINK-6258 now!
10-day predictions
STARLINK-6258 is classified as:


NORAD ID: 56413
Int'l Code: 2023-061AR
Perigee: 565.1 km
Apogee: 567.3 km
Inclination: 43.0 °
Period: 95.8 minutes
Semi major axis: 6937 km
RCS: Unknown
Launch date: May 4, 2023
Source: United States (US)
Launch site: AIR FORCE EASTERN TEST RANGE (AFETR)
Your satellite tracking list
Your tracking list is empty




NASA's NSSDC Master Catalog

Two Line Element Set (TLE):
1 56413U 23061AR  26020.21391221  .00000866  00000-0  79179-4 0  9999
2 56413  43.0046  87.7836 0001591 272.7243  87.3417 15.02536150149619
Source of the keplerian elements: AFSPC